Wind_Speed
14 15 14 15 15 16 17 17 17 18 19 19 19 20 21 21 20 18 19 19 19 19 20 20 19 19 20 20 20 20 19 19 19 19 19 19 19 20 20 20 19 19 19
14 14 14 15 15 16 17 17 17 18 18 19 19 19 19 21 20 19 19 19 20 20 21 21 20 21 21 21 20 19 19 19 19 20 20 20 20 20 20 20 20 20 20
12 13 14 14 15 15 17 18 17 18 18 18 18 20 20 20 20 20 21 21 21 21 22 22 21 21 21 21 22 22 21 21 21 21 21 22 21 21 22 21 21 21 20
13 14 15 15 15 15 16 16 16 18 19 19 19 19 19 20 19 20 21 21 22 22 22 22 22 22 22 22 22 23 23 22 23 23 23 23 23 23 23 23 22 22 21
13 14 15 15 15 16 16 16 16 17 18 19 20 19 19 20 20 20 20 20 21 22 22 22 23 23 23 23 23 24 24 24 24 24 25 25 24 24 23 24 23 23 23
13 14 14 15 16 16 16 16 17 18 18 19 19 19 20 20 19 20 20 20 21 22 22 21 22 23 23 23 23 23 24 25 25 25 25 25 25 25 25 24 25 24 24
13 14 15 15 16 16 16 16 17 17 18 19 19 19 19 20 19 20 20 21 22 22 22 21 21 22 22 22 23 23 23 24 24 25 25 25 25 25 25 25 26 26 26
13 14 15 15 16 17 17 17 17 17 17 18 18 18 19 20 19 19 20 21 21 21 21 21 20 21 23 24 24 24 24 24 24 25 26 26 26 26 26 26 26 27 27
14 15 16 15 16 17 17 17 17 17 17 17 18 18 18 19 19 20 20 19 20 20 19 20 20 21 22 23 24 24 25 25 25 25 26 27 27 26 26 27 26 28 28
15 16 16 15 16 15 16 16 17 17 18 18 18 18 19 18 19 18 19 19 20 20 20 20 21 21 22 23 23 23 25 25 25 26 26 27 28 28 28 28 28 29 29
15 15 15 15 15 15 16 17 17 18 18 18 18 17 17 17 17 17 17 19 19 19 19 20 20 21 22 22 22 23 24 25 26 26 27 28 29 30 30 30 30 30 31
15 15 15 15 16 16 17 17 17 17 17 17 17 17 17 18 18 18 17 18 18 18 19 19 20 21 22 22 23 23 24 25 26 27 28 29 30 30 31 31 32 32 32
16 16 16 16 16 16 16 17 17 17 17 17 17 17 17 18 18 18 18 19 19 19 20 20 21 23 23 23 23 24 24 25 26 26 27 28 29 30 31 32 32 33 33
16 16 16 16 17 16 17 17 18 18 17 17 17 16 17 18 18 19 19 19 19 20 20 21 22 22 23 23 23 24 24 25 26 26 27 28 28 29 30 31 32 32 32
16 16 17 17 17 17 17 17 17 17 17 17 18 18 18 18 19 19 20 20 21 21 22 22 22 22 23 24 24 24 24 25 26 27 28 28 29 30 30 30 31 31 31
16 16 16 16 16 17 17 16 16 16 17 17 18 19 19 19 19 19 20 21 22 23 23 22 22 23 24 24 24 25 25 25 26 27 28 29 30 30 30 31 31 31 31
16 16 16 16 16 16 17 17 17 17 17 18 18 18 18 17 18 18 19 21 22 23 23 23 24 24 25 25 25 26 26 26 26 26 27 28 28 29 30 31 32 32 32
16 16 16 16 16 17 17 18 18 17 17 16 17 17 16 17 18 19 20 21 22 23 24 24 24 25 25 25 25 26 25 25 25 26 26 27 28 29 29 30 31 32 33
17 17 17 17 17 17 18 17 17 17 18 18 18 18 17 18 18 19 20 20 21 22 23 23 23 23 24 24 25 25 26 26 26 26 26 27 28 29 30 31 31 32 32
19 19 18 17 17 17 17 17 17 19 19 19 20 20 19 19 19 20 21 21 22 22 23 23 22 21 21 23 24 24 25 26 26 27 26 27 27 27 28 29 30 31 31
19 19 18 18 18 18 18 18 18 20 20 21 20 20 20 20 20 21 21 22 22 22 22 22 22 22 21 22 23 23 25 25 25 25 25 25 25 25 26 27 28 29 30
19 19 19 19 19 19 18 19 19 20 21 21 21 21 21 21 22 21 22 22 21 21 21 21 22 22 22 22 23 23 23 23 24 24 25 25 25 24 25 26 27 27 28
19 19 20 20 20 19 20 19 21 21 22 22 22 21 21 22 22 22 22 22 21 21 21 22 22 22 22 22 22 22 22 22 23 24 24 25 26 25 26 26 27 27 28
20 20 20 21 20 21 20 21 21 22 23 23 22 23 23 23 24 23 22 22 21 21 21 22 22 22 22 22 22 22 23 23 23 23 24 24 25 25 26 26 27 27 27
21 21 22 21 21 21 21 22 22 23 23 24 24 24 24 24 24 23 23 22 22 22 22 22 23 22 22 22 22 22 22 23 23 23 24 24 24 25 25 26 26 27 27
21 22 22 22 22 22 23 23 23 23 24 24 25 25 25 25 25 24 23 22 22 22 22 22 22 22 21 21 21 21 21 22 22 22 23 24 24 25 25 25 26 27 28
Wind_Direction
273 272 273 272 272 270 271 272 270 268 266 267 268 268 264 267 265 263 262 259 258 257 257 255 255 257 257 259 259 258 257 253 251 249 249 248 248 248 247 248 248 248 247
277 271 275 276 274 274 275 274 275 274 269 268 267 268 269 266 263 263 263 261 259 257 257 255 255 256 257 257 257 257 256 253 250 249 250 250 249 248 247 247 249 248 247
282 279 279 278 279 279 279 280 277 276 274 270 269 270 267 266 262 263 264 264 261 260 258 258 257 256 257 257 256 256 257 255 251 249 249 249 249 248 246 246 248 248 248
283 284 283 282 283 282 282 279 278 275 275 274 273 271 266 266 263 264 266 265 264 261 260 259 256 256 256 257 255 255 256 257 254 252 250 249 249 249 248 247 247 247 248
282 284 285 283 285 286 286 282 281 276 276 276 273 272 269 265 265 269 268 266 266 264 263 262 259 256 256 255 255 255 255 256 256 254 252 249 249 248 248 248 248 247 248
289 284 285 286 287 290 289 288 284 282 279 277 274 273 273 269 269 269 269 270 271 270 267 266 264 259 257 256 255 256 255 255 255 256 253 250 250 248 249 249 249 249 250
297 293 291 289 289 292 291 289 288 288 286 281 275 274 275 274 271 270 270 271 271 270 266 265 262 261 258 259 258 257 255 254 253 254 253 252 251 249 250 250 251 250 250
300 301 296 292 293 294 296 293 292 292 291 288 284 280 278 277 273 273 272 271 270 268 266 265 262 261 258 257 257 257 255 254 255 255 254 252 251 250 251 250 251 250 251
298 299 297 294 296 296 298 296 292 293 293 291 287 284 284 281 277 276 274 271 267 267 266 265 265 263 261 258 258 257 256 254 255 254 253 252 252 252 252 252 251 250 250
297 299 297 296 297 299 301 300 295 293 294 293 289 286 285 284 280 276 275 274 270 267 268 268 267 266 264 261 260 257 256 255 255 254 252 252 252 253 253 253 254 252 251
301 301 300 302 303 302 301 301 296 293 294 292 291 289 286 285 284 281 280 277 274 271 270 271 270 269 268 266 263 259 257 256 255 255 254 253 254 254 254 255 256 255 253
302 303 303 304 305 304 302 301 299 296 294 293 291 290 289 287 285 285 281 279 276 276 275 273 271 271 270 269 264 263 261 259 258 258 256 256 256 256 256 255 256 256 254
301 303 306 306 306 307 305 302 300 300 297 292 289 289 288 291 290 286 284 282 279 280 278 276 275 272 270 269 267 265 262 261 261 261 260 259 257 256 256 255 256 256 255
303 303 306 309 309 307 308 307 307 306 302 298 294 291 288 290 291 289 288 285 282 280 279 278 277 275 274 272 270 268 264 263 263 263 263 261 259 258 257 257 256 256 255
307 305 305 308 310 311 312 312 310 308 306 302 297 294 292 291 292 291 288 286 284 281 280 278 279 279 277 275 272 270 267 265 265 264 262 261 262 260 258 258 257 256 256
310 310 311 312 313 315 317 317 315 312 310 308 302 296 292 289 289 290 288 287 286 283 281 279 278 278 278 277 274 272 270 269 268 266 264 262 261 260 260 259 258 257 256
304 307 308 309 312 315 318 317 315 312 312 311 309 306 301 292 293 294 293 291 289 287 284 282 279 277 276 275 275 273 272 270 268 266 265 263 261 260 259 258 258 257 256
303 304 305 307 310 314 315 315 315 315 314 314 314 313 308 304 300 299 297 295 293 291 288 285 282 278 276 276 275 273 273 271 269 266 266 265 262 261 261 260 258 257 257
304 304 305 305 308 311 314 315 316 316 314 313 313 313 311 307 306 304 303 300 297 294 292 288 286 282 279 279 277 275 273 271 269 268 267 267 266 263 261 260 258 258 258
304 303 303 301 302 306 310 311 312 313 313 312 311 312 311 308 306 305 305 303 302 299 294 290 288 284 284 282 281 277 275 273 270 269 268 269 268 265 262 259 258 258 257
301 300 301 300 299 304 307 308 310 313 315 313 311 311 311 308 305 304 303 302 301 300 296 293 291 286 284 283 283 280 278 275 272 271 269 269 268 265 261 260 259 258 258
300 301 298 297 301 304 305 307 310 313 315 314 312 310 308 307 305 303 303 301 300 299 299 296 293 289 285 283 282 280 278 277 274 271 268 267 267 266 263 262 260 259 260
299 300 300 303 303 307 307 307 310 310 312 313 313 312 310 307 306 304 304 302 301 300 300 299 297 293 289 286 282 279 278 278 275 274 271 269 268 266 265 264 263 260 260
298 298 300 303 303 303 304 307 308 309 310 311 311 310 309 309 308 305 304 303 302 302 301 300 300 296 293 290 286 283 281 279 277 276 275 272 270 269 268 266 266 265 264
297 298 298 299 300 300 301 303 306 308 308 308 309 309 308 307 307 308 306 305 304 302 300 299 300 299 294 292 290 288 285 283 280 278 277 276 273 270 269 267 266 265 266
296 297 297 297 298 299 300 301 304 306 306 305 305 306 306 306 306 307 307 306 305 304 302 301 300 300 297 293 292 290 288 286 284 280 280 279 276 274 272 270 268 266 266
Height
5839 5839 5839 5839 5839 5839 5839 5839 5839 5839 5839 5839 5839 5839 5840 5841 5841 5842 5842 5843 5845 5846 5847 5847 5848 5849 5850 5851 5852 5853 5854 5855 5856 5858 5859 5860 5862 5863 5865 5866 5868 5870 5871
5835 5835 5835 5835 5835 5835 5835 5835 5835 5835 5834 5834 5835 5835 5835 5836 5836 5836 5838 5838 5839 5841 5842 5843 5843 5844 5845 5846 5847 5848 5849 5850 5852 5853 5854 5856 5857 5859 5860 5862 5864 5865 5867
5832 5832 5832 5832 5832 5831 5831 5830 5830 5830 5830 5830 5831 5831 5831 5831 5831 5832 5833 5833 5833 5835 5836 5837 5838 5839 5840 5841 5842 5843 5844 5845 5846 5848 5850 5851 5853 5854 5856 5857 5859 5861 5863
5829 5829 5829 5828 5828 5827 5827 5826 5825 5825 5825 5826 5826 5826 5826 5826 5826 5827 5827 5828 5828 5829 5830 5831 5832 5833 5834 5835 5836 5838 5839 5840 5841 5842 5844 5846 5848 5849 5851 5852 5854 5856 5858
5826 5826 5825 5825 5824 5824 5822 5821 5821 5820 5820 5821 5821 5821 5820 5820 5821 5821 5821 5822 5823 5823 5824 5825 5826 5827 5828 5829 5830 5832 5833 5834 5835 5837 5838 5840 5842 5844 5846 5847 5849 5851 5853
5822 5822 5821 5821 5820 5819 5818 5817 5817 5816 5816 5816 5815 5815 5815 5815 5815 5816 5817 5816 5816 5817 5818 5819 5820 5821 5822 5823 5824 5825 5827 5828 5829 5831 5832 5834 5837 5838 5840 5842 5844 5846 5848
5820 5819 5818 5817 5816 5816 5814 5814 5812 5811 5811 5810 5810 5810 5809 5809 5809 5810 5810 5811 5811 5811 5811 5812 5813 5814 5816 5817 5818 5819 5821 5822 5824 5825 5827 5828 5830 5833 5834 5836 5838 5840 5843
5817 5816 5815 5814 5813 5812 5811 5809 5808 5807 5806 5805 5805 5804 5804 5805 5804 5804 5805 5805 5805 5805 5805 5806 5807 5809 5810 5811 5812 5813 5814 5816 5818 5819 5821 5822 5825 5827 5829 5830 5832 5834 5836
5814 5813 5812 5811 5809 5808 5807 5805 5804 5803 5802 5801 5800 5799 5799 5799 5799 5799 5798 5799 5799 5799 5800 5800 5801 5802 5804 5805 5806 5807 5809 5810 5812 5813 5815 5816 5818 5820 5822 5824 5826 5828 5830
5811 5810 5809 5808 5806 5805 5803 5802 5801 5799 5798 5797 5795 5795 5794 5794 5794 5793 5793 5793 5793 5794 5794 5795 5796 5797 5798 5799 5800 5801 5802 5804 5805 5807 5808 5810 5812 5813 5815 5817 5819 5821 5823
5809 5808 5806 5805 5803 5802 5800 5798 5797 5796 5794 5792 5791 5790 5790 5789 5789 5788 5788 5788 5788 5788 5789 5790 5790 5791 5792 5792 5793 5794 5796 5797 5799 5800 5801 5803 5805 5806 5808 5810 5812 5814 5815
5806 5805 5804 5802 5800 5798 5796 5795 5793 5792 5790 5789 5788 5787 5786 5785 5785 5784 5783 5783 5783 5783 5784 5784 5785 5785 5786 5786 5787 5788 5789 5791 5792 5793 5794 5796 5797 5799 5800 5802 5804 5806 5808
5804 5802 5801 5799 5797 5796 5794 5792 5790 5788 5786 5785 5784 5783 5782 5781 5780 5780 5779 5778 5778 5778 5778 5779 5779 5780 5780 5780 5781 5782 5783 5784 5785 5786 5787 5788 5789 5791 5792 5794 5796 5797 5799
5801 5799 5798 5796 5794 5792 5790 5788 5786 5784 5782 5781 5780 5779 5778 5777 5776 5775 5774 5773 5773 5773 5773 5773 5773 5773 5773 5774 5774 5775 5776 5777 5778 5779 5780 5781 5781 5782 5784 5785 5787 5789 5790
5797 5796 5794 5792 5791 5789 5787 5785 5782 5780 5779 5777 5776 5774 5773 5772 5771 5770 5769 5769 5768 5767 5767 5767 5767 5767 5767 5767 5768 5768 5769 5770 5771 5772 5772 5773 5774 5775 5775 5777 5778 5780 5782
5794 5793 5791 5789 5787 5786 5783 5781 5779 5777 5776 5774 5772 5770 5769 5768 5766 5765 5765 5763 5762 5762 5761 5761 5760 5760 5760 5760 5761 5761 5762 5763 5763 5763 5764 5765 5766 5766 5767 5768 5770 5771 5773
5791 5790 5788 5786 5785 5783 5781 5779 5777 5775 5773 5771 5768 5766 5764 5763 5762 5760 5759 5758 5756 5755 5754 5754 5753 5753 5753 5753 5753 5753 5754 5754 5755 5755 5756 5756 5757 5758 5759 5760 5761 5763 5765
5788 5786 5785 5783 5782 5780 5778 5776 5774 5772 5769 5767 5765 5763 5761 5759 5757 5756 5754 5752 5751 5749 5748 5747 5746 5746 5746 5745 5745 5745 5746 5746 5747 5747 5748 5748 5748 5749 5750 5751 5753 5754 5756
5784 5783 5781 5780 5778 5777 5775 5773 5771 5769 5766 5764 5762 5760 5757 5755 5753 5751 5749 5747 5745 5743 5741 5740 5739 5739 5738 5738 5737 5737 5737 5738 5738 5739 5739 5739 5740 5740 5741 5742 5744 5745 5747
5780 5779 5777 5776 5774 5773 5771 5769 5767 5765 5763 5761 5759 5756 5754 5751 5749 5747 5744 5742 5740 5738 5735 5734 5733 5732 5731 5731 5730 5729 5729 5729 5729 5730 5731 5731 5731 5731 5732 5733 5735 5736 5737
5776 5774 5773 5771 5770 5768 5767 5765 5763 5761 5759 5757 5754 5752 5749 5747 5744 5742 5739 5737 5735 5732 5730 5728 5727 5726 5725 5724 5723 5722 5721 5721 5721 5721 5722 5723 5723 5724 5724 5725 5726 5727 5728
5772 5770 5769 5767 5765 5764 5762 5760 5759 5757 5755 5752 5750 5747 5744 5742 5739 5737 5734 5732 5729 5727 5725 5723 5721 5719 5718 5717 5716 5715 5714 5714 5714 5715 5714 5715 5715 5716 5716 5717 5717 5718 5719
5767 5766 5764 5761 5760 5758 5757 5756 5754 5752 5750 5748 5745 5742 5739 5737 5734 5731 5729 5726 5724 5721 5719 5717 5715 5713 5712 5711 5710 5709 5708 5707 5707 5707 5707 5707 5707 5708 5708 5709 5709 5710 5711
5763 5761 5760 5758 5756 5754 5752 5751 5749 5747 5745 5743 5740 5737 5734 5732 5729 5726 5723 5721 5719 5716 5714 5711 5709 5707 5706 5704 5703 5702 5701 5701 5701 5700 5700 5700 5700 5700 5700 5701 5701 5702 5702
5758 5756 5755 5753 5751 5749 5747 5746 5743 5741 5739 5737 5735 5732 5729 5726 5723 5720 5718 5715 5713 5710 5708 5705 5703 5701 5699 5698 5696 5695 5694 5694 5694 5694 5693 5693 5692 5692 5692 5693 5693 5693 5694
5753 5751 5750 5748 5746 5744 5742 5740 5738 5736 5733 5731 5728 5726 5723 5720 5717 5714 5712 5709 5707 5705 5702 5700 5698 5696 5694 5692 5690 5689 5688 5687 5686 5687 5686 5685 5685 5684 5685 5685 5685 5685 5685